DECAYED
Showing default

JILIN-01 GAOFEN 3D 32, 52449 (Decayed)

Orbit data source: Space-Track

JILIN-01 GAOFEN 3D 32, 52449 was a payload satellite owned by Changguang WJ (CN) in LEO that was launched on Thu, 05 May 2022 UTC via a CHANG ZHENG 2D launch vehicle from the Taiyaun Space Center, China (TSC). Payload-class satellites include a variety of spacecraft equipped with specific instruments for various scientific and technological missions. These include communications satellites like Starlink; space stations such as the ISS; scientific satellites like the Hubble; Earth observation satellites from companies like Planet Labs, Umbra, and HawkEye 360; GPS; miniature CubeSats for education and research; and military/defense satellites.

Not visible in the next 10 days
Identifier
52449, 2022-048G
Orbit
Decayed
Country
Flag of CNCN / PRC
Related business
Manufacturer
Changguang WJ
Mission
Decayed Commercial Imaging
Bus & Motor
JL-1, Unknown motor
Mass
42 kg wet, 42 kg dry
Launch date (UTC)
2022-05-05 (4 years ago)
Launch vehicle
CHANG ZHENG 2D
Launch site
Taiyaun Space Center, China (TSC)
Object type
Payload
Rocket body
Debris
Shape & HBR
Box + 2 Pan, 0.8 m
Radar Cross Section
2.000 m², Medium (>0.1 m² and < 1m²)

Expand to show TLE details & history
Last TLE update: 2 months ago

TLE from 2 months ago
0 JILIN-01 GAOFEN 3D 32
1 52449U 22048G   25273.24635087  .06895051  26152-5  11612-2 0  9992
2 52449  97.5675  24.2944 0011026 261.8113  98.1932 16.33074392190169
Epoch: 2025-09-30T05:54Z
TLE epoch observation values (Epoch: 2025-09-30T05:54:44.715Z)
Latitude
0.00002°
Longitude
-73.63038°
Altitude
188.567 km
Speed
7.792 km/s
True Right ascension
01h 37m 10s
True Declination
0° 00' 00"
Sunlit
Object was in full shadow at epoch
Visualization orbit readout
Latitude
Unknown
Longitude
Unknown
Altitude
Unknown
Speed
Unknown
Apparent Right ascension
Unknown
Apparent Declination
Unknown
Sunlit
N/A
Visualization observer readout
Local Sidereal Time
07:34:25
Azimuth
Unknown
Elevation
Unknown
Doppler factor
Unknown
Orbital elements
Apogee altitude
188.347 km
Perigee altitude
173.883 km
Semi-major axis
6,559.252 km
Eccentricity
0.0011
Inclination
97.5675°
RAAN
24.2944°
Arg. of periapsis
261.8113°
True anomaly
98.31823°
Mean anomaly
98.1932°
Eccentric anomaly
98.25572°
Mean motion
4.08566 °/min
Orbital period
88.11 mins
BSTAR
0.0011612
Loading maneuver chart data...
Computing Atmospheric mass density...
Loading historical data...
Loading historical data...
Loading historical data...
Loading historical data...
Loading historical data...
Loading historical data...
Loading historical data...

Documentation

Showing up to 5 results
|